Weather History for Greenwood, SC

Change the Weather History Date:

Monday, January 27, 2014

  Actual Average (KAND) Record (KAND)
Temperature  
Mean Temperature 53 °F -  
Max Temperature 64 °F 53 °F 75 °F (1954)
Min Temperature 42 °F 31 °F 11 °F (1985)
Degree Days  
Heating Degree Days 12    
Growing Degree Days 3 (Base 50)    
Moisture  
Dew Point 31 °F    
Average Humidity 44    
Maximum Humidity 62    
Minimum Humidity 33    
Precipitation  
Precipitation 0.00 in - - ()
Sea Level Pressure  
Sea Level Pressure 29.92 in    
Wind  
Wind Speed 9 mph (WSW)    
Max Wind Speed 14 mph    
Max Gust Speed 23 mph    
Visibility 10 miles    
Events      
Averages and records for this station are not official NWS values.
T = Trace of Precipitation, MM = Missing Value Source: NWS Daily Summary

Daily Weather History Graph

Daily Weather History Graph

Search for Another Location

Airport:

Trip Planner

Search our weather history database for the weather conditions in past years. The results will help you decide how hot, cold, wet, or windy it might be!

Date:

Astronomy

Jan. 27, 2014 Rise Set
Actual Time 7:29 AM EST 5:53 PM EST
Civil Twilight 7:02 AM EST 6:20 PM EST
Nautical Twilight 6:32 AM EST 6:50 PM EST
Astronomical Twilight 6:02 AM EST 7:20 PM EST
Moon 4:07 AM EST (1/27) 2:40 PM EST (1/27)
Length of Visible Light 11h 17m
Length of Day
10h 24m
Waning Crescent, 15% of the Moon is Illuminated
Jan 27
Waning Crescent
Jan 30
New
Feb 6
First Quarter
Feb 14
Full
Feb 22
Last Quarter

Hourly Weather History & Observations

Time (EST) Temp. Windchill Dew Point Humidity Pressure Visibility Wind Dir Wind Speed Gust Speed Precip Events Conditions
12:56 AM 50.0 °F - 28.9 °F 44% 29.92 in 10.0 mi SSW 11.5 mph - N/A   Mostly Cloudy
1:56 AM 48.9 °F - 30.0 °F 48% 29.93 in 10.0 mi SW 12.7 mph - N/A   Overcast
2:56 AM 48.9 °F - 30.0 °F 48% 29.92 in 10.0 mi WSW 9.2 mph - N/A   Overcast
3:56 AM 48.0 °F - 30.0 °F 50% 29.91 in 10.0 mi SW 6.9 mph - 0.00 in   Mostly Cloudy
4:56 AM 48.0 °F - 30.0 °F 50% 29.89 in 10.0 mi SSW 5.8 mph - N/A   Overcast
5:56 AM 46.9 °F - 30.9 °F 54% 29.88 in 10.0 mi South 6.9 mph - 0.00 in   Overcast
6:56 AM 46.9 °F - 30.9 °F 54% 29.92 in 10.0 mi WSW 6.9 mph - N/A   Mostly Cloudy
7:56 AM 42.1 °F 39.2 °F 30.0 °F 62% 29.94 in 10.0 mi SSW 4.6 mph - N/A   Clear
8:56 AM 48.9 °F - 30.9 °F 50% 29.92 in 10.0 mi SSW 6.9 mph - N/A   Clear
9:56 AM 53.1 °F - 32.0 °F 45% 29.92 in 10.0 mi SW 8.1 mph 18.4 mph N/A   Clear
10:56 AM 57.9 °F - 34.0 °F 41% 29.90 in 10.0 mi WSW 10.4 mph - N/A   Clear
11:56 AM 61.0 °F - 34.0 °F 36% 29.88 in 9.0 mi WSW 13.8 mph - N/A   Clear
12:56 PM 62.1 °F - 34.0 °F 35% 29.86 in 10.0 mi SW 11.5 mph - N/A   Mostly Cloudy
1:56 PM 63.0 °F - 34.0 °F 34% 29.85 in 9.0 mi West 11.5 mph 19.6 mph N/A   Partly Cloudy
2:56 PM 64.0 °F - 34.0 °F 33% 29.85 in 10.0 mi West 13.8 mph 23.0 mph N/A   Partly Cloudy
3:56 PM 64.0 °F - 34.0 °F 33% 29.85 in 10.0 mi WSW 11.5 mph 19.6 mph N/A   Clear
4:56 PM 63.0 °F - 34.0 °F 34% 29.87 in 10.0 mi West 9.2 mph - N/A   Clear
5:56 PM 59.0 °F - 34.0 °F 39% 29.89 in 10.0 mi WNW 3.5 mph - N/A   Clear
6:56 PM 55.0 °F - 33.1 °F 43% 29.93 in 10.0 mi West 4.6 mph - N/A   Clear
7:56 PM 52.0 °F - 32.0 °F 47% 29.95 in 10.0 mi WSW 4.6 mph - N/A   Clear
8:56 PM 51.1 °F - 30.0 °F 44% 29.98 in 10.0 mi West 4.6 mph - N/A   Clear
9:56 PM 48.9 °F - 28.9 °F 46% 29.99 in 10.0 mi West 5.8 mph - N/A   Clear
10:56 PM 46.9 °F - 27.0 °F 46% 30.00 in 10.0 mi West 4.6 mph - N/A   Clear
11:56 PM 46.0 °F 44.8 °F 26.1 °F 46% 30.02 in 10.0 mi NNW 3.5 mph - N/A   Clear